Time,TemperatureF,DewpointF,PressureIn,WindDirection,WindDirectionDegrees,WindSpeedMPH,WindSpeedGustMPH,Humidity,HourlyPrecipIn,Conditions,Clouds,dailyrainin,SoftwareType,DateUTC
2013-11-09 00:06:00,36.8,20.0,30.26,SSW,200,3.0,6.0,50,0.00,,,0.00,weatherlink.com 1.10,2013-11-09 07:06:00,
2013-11-09 00:21:00,36.0,19.0,30.27,SSW,198,3.0,5.0,51,0.00,,,0.00,weatherlink.com 1.10,2013-11-09 07:21:00,
2013-11-09 00:36:00,35.1,19.0,30.26,South,186,5.0,6.0,53,0.00,,,0.00,weatherlink.com 1.10,2013-11-09 07:36:00,
2013-11-09 00:51:00,34.7,19.0,30.26,SSW,192,2.0,5.0,53,0.00,,,0.00,weatherlink.com 1.10,2013-11-09 07:51:00,
2013-11-09 01:06:00,34.6,19.0,30.26,SSW,207,4.0,7.0,53,0.00,,,0.00,weatherlink.com 1.10,2013-11-09 08:06:00,
2013-11-09 01:21:00,34.8,19.0,30.27,SSW,192,5.0,6.0,53,0.00,,,0.00,weatherlink.com 1.10,2013-11-09 08:21:00,
2013-11-09 01:36:00,34.9,19.0,30.27,South,187,7.0,7.0,53,0.00,,,0.00,weatherlink.com 1.10,2013-11-09 08:36:00,
2013-11-09 01:51:00,36.6,19.0,30.26,South,182,4.0,9.0,49,0.00,,,0.00,weatherlink.com 1.10,2013-11-09 08:51:00,
2013-11-09 02:06:00,36.7,19.0,30.26,South,189,6.0,8.0,48,0.00,,,0.00,weatherlink.com 1.10,2013-11-09 09:06:00,
2013-11-09 02:21:00,36.3,18.0,30.26,South,191,5.0,7.0,48,0.00,,,0.00,weatherlink.com 1.10,2013-11-09 09:21:00,
2013-11-09 02:36:00,36.2,18.0,30.26,SSW,200,3.0,7.0,48,0.00,,,0.00,weatherlink.com 1.10,2013-11-09 09:36:00,
2013-11-09 02:51:00,35.7,18.0,30.26,SW,217,4.0,6.0,49,0.00,,,0.00,weatherlink.com 1.10,2013-11-09 09:51:00,
2013-11-09 03:06:00,35.1,18.0,30.26,SSW,212,4.0,8.0,49,0.00,,,0.00,weatherlink.com 1.10,2013-11-09 10:06:00,
2013-11-09 03:21:00,35.2,18.0,30.27,SSW,200,4.0,6.0,49,0.00,,,0.00,weatherlink.com 1.10,2013-11-09 10:21:00,
2013-11-09 03:36:00,35.6,18.0,30.27,South,184,5.0,7.0,49,0.00,,,0.00,weatherlink.com 1.10,2013-11-09 10:36:00,
2013-11-09 03:51:00,35.7,18.0,30.27,SSW,200,4.0,8.0,48,0.00,,,0.00,weatherlink.com 1.10,2013-11-09 10:51:00,
2013-11-09 04:06:00,35.2,18.0,30.27,South,191,4.0,6.0,49,0.00,,,0.00,weatherlink.com 1.10,2013-11-09 11:06:00,
2013-11-09 04:21:00,34.7,18.0,30.27,South,190,4.0,5.0,50,0.00,,,0.00,weatherlink.com 1.10,2013-11-09 11:21:00,
2013-11-09 04:36:00,35.1,18.0,30.28,South,184,5.0,8.0,49,0.00,,,0.00,weatherlink.com 1.10,2013-11-09 11:36:00,
2013-11-09 04:51:00,35.8,18.0,30.28,South,175,5.0,8.0,48,0.00,,,0.00,weatherlink.com 1.10,2013-11-09 11:51:00,
2013-11-09 05:06:00,36.6,17.0,30.29,South,173,4.0,7.0,46,0.00,,,0.00,weatherlink.com 1.10,2013-11-09 12:06:00,
2013-11-09 05:21:00,36.9,18.0,30.29,South,173,4.0,7.0,46,0.00,,,0.00,weatherlink.com 1.10,2013-11-09 12:21:00,
2013-11-09 05:36:00,36.9,18.0,30.29,SSE,168,1.0,9.0,46,0.00,,,0.00,weatherlink.com 1.10,2013-11-09 12:36:00,
2013-11-09 05:51:00,35.9,17.0,30.29,South,169,2.0,4.0,46,0.00,,,0.00,weatherlink.com 1.10,2013-11-09 12:51:00,
2013-11-09 06:06:00,34.6,17.0,30.29,SSW,202,6.0,7.0,49,0.00,,,0.00,weatherlink.com 1.10,2013-11-09 13:06:00,
2013-11-09 06:21:00,35.1,17.0,30.29,South,188,9.0,10.0,48,0.00,,,0.00,weatherlink.com 1.10,2013-11-09 13:21:00,
2013-11-09 06:36:00,35.9,17.0,30.30,SSE,163,6.0,10.0,47,0.00,,,0.00,weatherlink.com 1.10,2013-11-09 13:36:00,
2013-11-09 06:51:00,36.1,17.0,30.30,South,186,6.0,9.0,46,0.00,,,0.00,weatherlink.com 1.10,2013-11-09 13:51:00,
2013-11-09 07:06:00,35.8,17.0,30.30,SSW,194,6.0,7.0,47,0.00,,,0.00,weatherlink.com 1.10,2013-11-09 14:06:00,
2013-11-09 07:21:00,36.4,18.0,30.30,South,190,4.0,9.0,47,0.00,,,0.00,weatherlink.com 1.10,2013-11-09 14:21:00,
2013-11-09 07:36:00,38.5,18.0,30.30,South,184,2.0,6.0,44,0.00,,,0.00,weatherlink.com 1.10,2013-11-09 14:36:00,
2013-11-09 07:52:00,41.8,19.0,30.31,SSW,198,1.0,6.0,40,0.00,,,0.00,weatherlink.com 1.10,2013-11-09 14:52:00,
2013-11-09 08:07:00,43.7,19.0,30.31,SSW,192,1.0,4.0,37,0.00,,,0.00,weatherlink.com 1.10,2013-11-09 15:07:00,
2013-11-09 08:22:00,44.7,19.0,30.31,SSW,196,1.0,3.0,36,0.00,,,0.00,weatherlink.com 1.10,2013-11-09 15:22:00,
2013-11-09 08:37:00,45.8,18.0,30.31,SE,142,0.0,6.0,33,0.00,,,0.00,weatherlink.com 1.10,2013-11-09 15:37:00,
2013-11-09 08:52:00,47.1,18.0,30.31,SSE,153,3.0,5.0,32,0.00,,,0.00,weatherlink.com 1.10,2013-11-09 15:52:00,
2013-11-09 09:07:00,46.8,18.0,30.32,SSE,161,1.0,5.0,32,0.00,,,0.00,weatherlink.com 1.10,2013-11-09 16:07:00,
2013-11-09 09:22:00,48.6,19.0,30.32,SSE,163,0.0,3.0,31,0.00,,,0.00,weatherlink.com 1.10,2013-11-09 16:22:00,
2013-11-09 09:37:00,51.3,19.0,30.31,SSE,165,1.0,3.0,28,0.00,,,0.00,weatherlink.com 1.10,2013-11-09 16:37:00,
2013-11-09 09:52:00,52.7,18.0,30.31,ESE,108,0.0,4.0,26,0.00,,,0.00,weatherlink.com 1.10,2013-11-09 16:52:00,
2013-11-09 10:07:00,53.8,21.0,30.31,ESE,107,0.0,3.0,28,0.00,,,0.00,weatherlink.com 1.10,2013-11-09 17:07:00,
2013-11-09 10:22:00,54.1,21.0,30.31,East,92,1.0,7.0,28,0.00,,,0.00,weatherlink.com 1.10,2013-11-09 17:22:00,
2013-11-09 10:37:00,56.0,21.0,30.31,East,92,1.0,6.0,26,0.00,,,0.00,weatherlink.com 1.10,2013-11-09 17:37:00,
2013-11-09 10:52:00,55.8,20.0,30.32,ENE,78,4.0,6.0,25,0.00,,,0.00,weatherlink.com 1.10,2013-11-09 17:52:00,
2013-11-09 11:07:00,55.7,19.0,30.31,NNE,26,3.0,8.0,24,0.00,,,0.00,weatherlink.com 1.10,2013-11-09 18:07:00,
2013-11-09 11:22:00,53.6,20.0,30.31,NNW,332,4.0,6.0,27,0.00,,,0.00,weatherlink.com 1.10,2013-11-09 18:22:00,
2013-11-09 11:37:00,52.8,19.0,30.31,North,11,0.0,5.0,27,0.00,,,0.00,weatherlink.com 1.10,2013-11-09 18:37:00,
2013-11-09 11:52:00,53.1,20.0,30.31,NE,40,0.0,6.0,27,0.00,,,0.00,weatherlink.com 1.10,2013-11-09 18:52:00,
2013-11-09 12:07:00,54.2,22.0,30.30,NE,45,0.0,3.0,28,0.00,,,0.00,weatherlink.com 1.10,2013-11-09 19:07:00,
2013-11-09 12:22:00,55.5,22.0,30.30,NNE,13,2.0,7.0,27,0.00,,,0.00,weatherlink.com 1.10,2013-11-09 19:22:00,
2013-11-09 12:37:00,55.3,23.0,30.30,NNW,336,1.0,9.0,28,0.00,,,0.00,weatherlink.com 1.10,2013-11-09 19:37:00,
2013-11-09 12:52:00,55.0,21.0,30.30,ENE,61,1.0,6.0,27,0.00,,,0.00,weatherlink.com 1.10,2013-11-09 19:52:00,
2013-11-09 13:07:00,55.0,22.0,30.29,NNE,30,1.0,8.0,28,0.00,,,0.00,weatherlink.com 1.10,2013-11-09 20:07:00,
2013-11-09 13:22:00,55.1,23.0,30.29,NNW,339,4.0,11.0,29,0.00,,,0.00,weatherlink.com 1.10,2013-11-09 20:22:00,
2013-11-09 13:37:00,54.8,23.0,30.29,ENE,72,3.0,7.0,29,0.00,,,0.00,weatherlink.com 1.10,2013-11-09 20:37:00,
2013-11-09 13:52:00,54.9,23.0,30.29,North,351,1.0,10.0,29,0.00,,,0.00,weatherlink.com 1.10,2013-11-09 20:52:00,
2013-11-09 14:07:00,55.0,23.0,30.29,North,355,1.0,11.0,29,0.00,,,0.00,weatherlink.com 1.10,2013-11-09 21:07:00,
2013-11-09 14:22:00,54.9,24.0,30.29,NNW,331,4.0,10.0,30,0.00,,,0.00,weatherlink.com 1.10,2013-11-09 21:22:00,
2013-11-09 14:37:00,54.5,23.0,30.29,NNW,336,5.0,10.0,30,0.00,,,0.00,weatherlink.com 1.10,2013-11-09 21:37:00,
2013-11-09 14:52:00,54.2,23.0,30.29,NW,304,4.0,10.0,30,0.00,,,0.00,weatherlink.com 1.10,2013-11-09 21:52:00,
2013-11-09 15:07:00,53.8,23.0,30.30,NNW,333,5.0,9.0,30,0.00,,,0.00,weatherlink.com 1.10,2013-11-09 22:07:00,
2013-11-09 15:22:00,53.3,22.0,30.30,NNW,340,2.0,9.0,30,0.00,,,0.00,weatherlink.com 1.10,2013-11-09 22:22:00,
2013-11-09 15:37:00,52.9,24.0,30.30,North,360,8.0,10.0,32,0.00,,,0.00,weatherlink.com 1.10,2013-11-09 22:37:00,
2013-11-09 15:52:00,52.9,23.0,30.30,NW,321,4.0,8.0,31,0.00,,,0.00,weatherlink.com 1.10,2013-11-09 22:52:00,
2013-11-09 16:07:00,51.5,22.0,30.31,NNW,327,2.0,9.0,32,0.00,,,0.00,weatherlink.com 1.10,2013-11-09 23:07:00,
2013-11-09 16:22:00,50.4,22.0,30.31,NW,315,3.0,6.0,33,0.00,,,0.00,weatherlink.com 1.10,2013-11-09 23:22:00,
2013-11-09 16:37:00,49.0,22.0,30.31,WNW,300,5.0,6.0,35,0.00,,,0.00,weatherlink.com 1.10,2013-11-09 23:37:00,
2013-11-09 16:52:00,47.4,21.0,30.31,West,280,1.0,5.0,36,0.00,,,0.00,weatherlink.com 1.10,2013-11-09 23:52:00,
2013-11-09 17:22:00,44.6,21.0,30.32,North,360,5.0,5.0,40,0.00,,,0.00,weatherlink.com 1.10,2013-11-10 00:22:00,
2013-11-09 17:37:00,43.1,21.0,30.33,West,259,3.0,5.0,41,0.00,,,0.00,weatherlink.com 1.10,2013-11-10 00:37:00,
2013-11-09 17:52:00,41.6,21.0,30.33,West,259,0.0,3.0,44,0.00,,,0.00,weatherlink.com 1.10,2013-11-10 00:52:00,
2013-11-09 18:07:00,39.8,21.0,30.33,West,259,0.0,2.0,47,0.00,,,0.00,weatherlink.com 1.10,2013-11-10 01:07:00,
2013-11-09 18:22:00,38.3,20.0,30.34,West,259,1.0,3.0,49,0.00,,,0.00,weatherlink.com 1.10,2013-11-10 01:22:00,
2013-11-09 18:37:00,37.0,22.0,30.34,West,259,3.0,3.0,54,0.00,,,0.00,weatherlink.com 1.10,2013-11-10 01:37:00,
2013-11-09 18:52:00,35.7,22.0,30.34,WSW,255,3.0,4.0,58,0.00,,,0.00,weatherlink.com 1.10,2013-11-10 01:52:00,
2013-11-09 19:07:00,35.1,22.0,30.34,SSW,209,4.0,4.0,59,0.00,,,0.00,weatherlink.com 1.10,2013-11-10 02:07:00,
2013-11-09 19:22:00,35.0,22.0,30.34,SW,215,6.0,6.0,59,0.00,,,0.00,weatherlink.com 1.10,2013-11-10 02:22:00,
2013-11-09 19:37:00,36.5,22.0,30.35,SSW,195,5.0,7.0,57,0.00,,,0.00,weatherlink.com 1.10,2013-11-10 02:37:00,
2013-11-09 19:52:00,37.7,22.0,30.35,North,360,6.0,7.0,54,0.00,,,0.00,weatherlink.com 1.10,2013-11-10 02:52:00,
2013-11-09 20:07:00,38.4,22.0,30.35,South,177,4.0,8.0,52,0.00,,,0.00,weatherlink.com 1.10,2013-11-10 03:07:00,
2013-11-09 20:22:00,38.6,22.0,30.35,South,173,3.0,6.0,51,0.00,,,0.00,weatherlink.com 1.10,2013-11-10 03:22:00,
2013-11-09 20:37:00,38.3,22.0,30.35,South,190,7.0,8.0,52,0.00,,,0.00,weatherlink.com 1.10,2013-11-10 03:37:00,
2013-11-09 20:53:00,38.7,22.0,30.35,SSE,156,5.0,8.0,52,0.00,,,0.00,weatherlink.com 1.10,2013-11-10 03:53:00,
2013-11-09 21:08:00,38.7,22.0,30.35,South,169,6.0,7.0,52,0.00,,,0.00,weatherlink.com 1.10,2013-11-10 04:08:00,
2013-11-09 21:23:00,38.4,22.0,30.35,South,180,5.0,7.0,52,0.00,,,0.00,weatherlink.com 1.10,2013-11-10 04:23:00,
2013-11-09 21:38:00,38.1,22.0,30.35,South,189,1.0,7.0,52,0.00,,,0.00,weatherlink.com 1.10,2013-11-10 04:38:00,
2013-11-09 21:53:00,37.5,21.0,30.35,SSW,194,5.0,6.0,52,0.00,,,0.00,weatherlink.com 1.10,2013-11-10 04:53:00,
2013-11-09 22:08:00,37.2,21.0,30.35,SSW,192,4.0,7.0,53,0.00,,,0.00,weatherlink.com 1.10,2013-11-10 05:08:00,
2013-11-09 22:23:00,37.7,21.0,30.35,South,179,7.0,7.0,52,0.00,,,0.00,weatherlink.com 1.10,2013-11-10 05:23:00,
2013-11-09 22:38:00,38.0,21.0,30.35,South,183,2.0,7.0,51,0.00,,,0.00,weatherlink.com 1.10,2013-11-10 05:38:00,
2013-11-09 22:53:00,37.8,21.0,30.35,South,178,7.0,8.0,51,0.00,,,0.00,weatherlink.com 1.10,2013-11-10 05:53:00,
2013-11-09 23:08:00,37.7,21.0,30.35,South,173,3.0,6.0,51,0.00,,,0.00,weatherlink.com 1.10,2013-11-10 06:08:00,
2013-11-09 23:23:00,37.2,21.0,30.35,SSW,205,5.0,6.0,52,0.00,,,0.00,weatherlink.com 1.10,2013-11-10 06:23:00,
2013-11-09 23:38:00,36.6,21.0,30.35,SSW,209,2.0,5.0,53,0.00,,,0.00,weatherlink.com 1.10,2013-11-10 06:38:00,
2013-11-09 23:53:00,36.2,20.0,30.35,South,190,3.0,6.0,53,0.00,,,0.00,weatherlink.com 1.10,2013-11-10 06:53:00,